Weather History for St. Joseph, MO

Change the Weather History Date:

Sunday, July 7, 2013

  Actual Average Record
Temperature  
Mean Temperature 82 °F 77 °F  
Max Temperature 93 °F 87 °F 104 °F (2012)
Min Temperature 71 °F 67 °F 50 °F (1967)
Degree Days  
Heating Degree Days 0 0  
Month to date heating degree days 0 0  
Since 1 June heating degree days 15 8  
Since 1 July heating degree days 0 0  
Cooling Degree Days 17 12  
Month to date cooling degree days 67 82  
Year to date cooling degree days 468 462  
Since 1 June cooling degree days 342 349  
Growing Degree Days 32 (Base 50)    
Moisture  
Dew Point 66 °F    
Average Humidity 63    
Maximum Humidity 84    
Minimum Humidity 41    
Precipitation  
Precipitation 0.04 in 0.15 in 2.90 in (1909)
Month to date precipitation 0.06 1.02  
Year to date precipitation 16.20 18.15  
Sea Level Pressure  
Sea Level Pressure 29.90 in    
Wind  
Wind Speed 11 mph (South)    
Max Wind Speed 22 mph    
Max Gust Speed 28 mph    
Visibility 10 miles    
Events Rain    
T = Trace of Precipitation, MM = Missing Value Source: NWS Daily Summary

Daily Weather History Graph

Daily Weather History Graph

Search for Another Location

Airport:

Trip Planner

Search our weather history database for the weather conditions in past years. The results will help you decide how hot, cold, wet, or windy it might be!

Date:

Astronomy

Jul. 07, 2013 Rise Set
Actual Time 5:58 AM CDT 8:50 PM CDT
Civil Twilight 5:26 AM CDT 9:22 PM CDT
Nautical Twilight 4:45 AM CDT 10:02 PM CDT
Astronomical Twilight 3:59 AM CDT 10:49 PM CDT
Moon 5:35 AM CDT (7/7) 8:14 PM CDT (7/7)
Length of Visible Light 15h 55m
Length of Day
14h 51m
Waning Crescent, 0% of the Moon is Illuminated
Jul 7
Waning Crescent
Jul 8
New
Jul 15
First Quarter
Jul 22
Full
Jul 29
Last Quarter

Hourly Weather History & Observations

Time (CDT) Temp. Heat Index Dew Point Humidity Pressure Visibility Wind Dir Wind Speed Gust Speed Precip Events Conditions
12:53 AM 75.0 °F - 64.9 °F 71% 29.89 in 10.0 mi SSE 11.5 mph - N/A   Overcast
1:53 AM 73.0 °F - 66.0 °F 79% 29.90 in 10.0 mi South 4.6 mph - N/A   Mostly Cloudy
2:53 AM 73.9 °F - 64.9 °F 73% 29.90 in 10.0 mi SSE 8.1 mph - N/A   Scattered Clouds
3:53 AM 75.0 °F - 64.0 °F 69% 29.92 in 10.0 mi Calm Calm - N/A   Mostly Cloudy
4:53 AM 72.0 °F - 66.0 °F 81% 29.91 in 6.0 mi South 10.4 mph - 0.04 in Rain Rain
5:53 AM 71.1 °F - 66.0 °F 84% 29.93 in 9.0 mi South 3.5 mph - 0.00 in   Partly Cloudy
6:23 AM 71.6 °F - 66.2 °F 83% 29.95 in 8.0 mi SSE 6.9 mph - N/A   Partly Cloudy
6:53 AM 72.0 °F - 66.0 °F 81% 29.92 in 9.0 mi South 6.9 mph - N/A   Clear
7:53 AM 73.9 °F - 66.0 °F 76% 29.93 in 9.0 mi South 6.9 mph - N/A   Clear
8:53 AM 75.9 °F - 66.0 °F 71% 29.92 in 10.0 mi South 10.4 mph - N/A   Clear
9:53 AM 79.0 °F - 64.9 °F 62% 29.91 in 10.0 mi South 13.8 mph - N/A   Clear
10:53 AM 84.0 °F 86.5 °F 66.9 °F 56% 29.91 in 10.0 mi SSW 16.1 mph - N/A   Clear
11:53 AM 88.0 °F 90.7 °F 66.9 °F 49% 29.90 in 10.0 mi SSW 17.3 mph 26.5 mph N/A   Clear
12:53 PM 90.0 °F 92.8 °F 66.9 °F 46% 29.89 in 10.0 mi South 17.3 mph 24.2 mph N/A   Clear
1:53 PM 91.9 °F 94.5 °F 66.0 °F 42% 29.88 in 10.0 mi South 17.3 mph 26.5 mph N/A   Clear
2:53 PM 93.0 °F 95.9 °F 66.0 °F 41% 29.87 in 10.0 mi SSW 17.3 mph 25.3 mph N/A   Clear
3:53 PM 93.0 °F 96.4 °F 66.9 °F 42% 29.87 in 10.0 mi South 16.1 mph - N/A   Clear
4:53 PM 91.9 °F 95.9 °F 68.0 °F 45% 29.88 in 10.0 mi South 15.0 mph - N/A   Clear
5:53 PM 91.0 °F 95.6 °F 69.1 °F 48% 29.87 in 10.0 mi SSW 15.0 mph 21.9 mph N/A   Partly Cloudy
6:53 PM 88.0 °F 92.1 °F 69.1 °F 53% 29.87 in 10.0 mi South 10.4 mph - N/A   Clear
7:10 PM 87.8 °F 92.6 °F 69.8 °F 55% 29.89 in 10.0 mi South 10.4 mph - N/A   Scattered Clouds
7:53 PM 86.0 °F 90.1 °F 69.1 °F 57% 29.86 in 10.0 mi South 10.4 mph - N/A   Clear
8:53 PM 84.0 °F 87.8 °F 69.1 °F 61% 29.86 in 10.0 mi South 9.2 mph - N/A   Clear
9:53 PM 82.9 °F 85.4 °F 66.9 °F 58% 29.90 in 10.0 mi South 9.2 mph - N/A   Clear
10:53 PM 82.9 °F 84.4 °F 64.0 °F 53% 29.92 in 10.0 mi South 10.4 mph - N/A   Clear
11:53 PM 82.9 °F 84.0 °F 63.0 °F 51% 29.92 in 10.0 mi SSW 12.7 mph - N/A   Clear